Simultaneous Nadir Overpasses (SNOs) Predictions

Prediction of SNOs between FY3D and NOAA-19 Satellite Orbit:

Table of predicted SNOs for the next 14.0 days since TLE Epoch: 10/17/2020
Index Date (FY3D) Time (FY3D) Lat,Lon (FY3D) SZA (FY3D ) Date (NOAA-19) Time (NOAA-19) Lat,Lon (NOAA-19) SZA (NOAA-19 ) Distance(km) Time Diff (sec)
1 10/29/2020 11:05:31 -79.04, 164.40 86.34 10/29/2020 11:04:23 -79.06, 164.39 86.29 2.68 68
2 10/29/2020 11:56:16 79.06, -28.43 93.71 10/29/2020 11:55:20 79.04, -28.50 93.72 2.34 56
3 10/29/2020 12:47:01 -79.07, 138.79 86.26 10/29/2020 12:46:24 -79.04, 138.76 86.27 2.99 37
4 10/29/2020 13:37:45 79.06, -53.79 93.73 10/29/2020 13:37:20 79.06, -53.87 93.75 1.66 25
5 10/29/2020 14:28:30 -79.07, 113.43 86.24 10/29/2020 14:28:24 -79.06, 113.39 86.24 1.26 6
6 10/29/2020 15:19:14 79.05, -79.16 93.76 10/29/2020 15:19:20 79.07, -79.24 93.78 2.62 6
7 10/29/2020 16:09:59 -79.07, 88.06 86.22 10/29/2020 16:10:24 -79.08, 88.02 86.22 1.23 25
8 10/29/2020 17:00:44 79.09,-104.77 93.83 10/29/2020 17:01:20 79.09,-104.61 93.80 3.42 36
9 10/29/2020 17:51:28 -79.07, 62.70 86.20 10/29/2020 17:52:24 -79.09, 62.66 86.19 2.94 56
10 10/29/2020 18:42:13 79.09,-130.14 93.85 10/29/2020 18:43:21 79.07,-130.25 93.82 2.95 68
